Theta_e
333 331 333 331 330 330 325 318 303 307 305 300 298 300 298 305 302 300 301 302 300 305 305 304 304 306 306 304 307 307 304 306 309 302 303 310 313 311 312 313 314 316 318 321 324 329 332 331 332 333 334 335 336 336 337 337 338 339 339 340 341 341 342 343 343 344 345 346 346 347 347 347 348 347 348 347 347 347 347 346 346 346 347 347 348 348 349 349 349 349 350 350 349 348 348 350 350
330 331 330 331 328 326 317 312 306 302 302 298 299 300 301 303 302 301 301 302 305 305 306 307 306 307 306 307 309 308 306 307 307 309 309 312 310 310 311 311 312 314 317 320 323 327 328 329 330 331 332 333 334 334 335 335 336 337 337 337 337 338 339 340 341 342 342 343 344 345 345 345 346 346 347 347 347 346 346 345 344 346 347 347 347 348 348 348 347 348 348 349 349 347 347 347 348
330 329 328 327 325 322 318 312 302 301 299 296 299 300 301 301 301 302 304 304 305 306 307 306 306 305 304 304 303 304 304 308 308 310 310 312 308 307 310 311 312 313 317 319 322 325 327 328 329 330 331 332 332 333 333 334 335 335 334 334 334 335 337 338 339 339 340 340 341 342 343 343 344 344 343 345 345 344 345 344 343 344 345 346 347 347 348 347 347 347 348 348 348 346 346 346 346
331 331 329 326 318 319 312 307 305 301 299 299 298 301 300 302 302 304 304 306 306 306 305 303 304 304 304 302 304 305 307 307 310 309 308 308 310 308 308 309 310 314 316 318 320 322 325 326 327 329 329 330 330 331 331 332 332 332 332 331 332 333 335 335 335 335 335 336 336 337 338 339 339 338 338 338 338 338 340 342 342 342 344 345 346 347 347 347 347 347 347 348 347 345 345 346 346
329 326 329 323 320 311 311 306 303 302 297 300 298 302 302 304 304 303 303 306 305 304 304 304 304 304 304 304 305 305 307 308 309 310 310 311 309 308 308 309 310 312 313 314 318 320 323 323 325 327 328 328 328 328 329 329 329 329 329 329 330 331 332 332 331 331 331 332 333 333 334 334 333 333 333 333 333 333 335 337 338 339 340 341 343 344 346 346 346 346 347 347 346 345 344 344 345
326 322 325 325 315 310 307 301 301 300 303 303 300 301 303 304 304 304 303 304 304 302 302 303 303 302 302 304 304 305 309 306 310 309 311 309 309 308 307 308 307 309 310 313 316 318 322 323 324 325 326 327 327 327 327 327 327 327 326 327 328 328 329 329 328 328 328 329 329 330 330 330 330 329 329 329 329 330 331 332 332 333 334 335 337 340 342 345 345 346 346 346 346 344 343 343 343
321 319 316 314 310 311 304 302 301 301 302 302 302 302 304 304 304 304 302 301 303 303 303 303 302 304 302 303 304 305 306 306 309 309 311 310 308 306 306 305 305 305 308 310 314 316 319 321 323 323 324 324 325 325 325 325 325 325 324 325 325 326 326 326 325 325 325 325 326 326 326 326 326 326 325 325 325 326 328 329 330 330 330 331 333 335 339 341 344 343 342 343 343 342 342 342 342
321 318 315 309 306 305 302 302 302 302 301 300 301 302 304 304 304 304 302 302 301 300 302 303 304 303 302 304 303 304 306 307 311 310 309 306 307 306 306 304 303 302 304 307 312 314 315 317 320 321 322 322 322 323 323 323 323 323 322 323 323 323 324 324 323 322 322 322 322 323 323 323 323 323 322 322 322 323 325 326 327 327 327 328 330 333 335 337 336 336 337 337 338 338 339 341 341
318 315 312 310 303 304 301 300 302 301 301 300 301 302 307 305 305 304 302 304 302 303 302 303 304 300 303 301 304 305 306 308 308 308 307 306 306 305 305 303 301 303 304 305 307 312 314 313 316 318 319 321 321 322 322 322 322 322 322 321 321 321 321 321 321 320 320 320 320 321 321 321 321 321 320 321 321 321 323 323 324 325 325 325 327 329 329 330 331 334 335 335 335 337 337 338 338
314 313 308 308 307 300 300 301 298 301 301 302 301 301 302 303 304 305 304 302 303 303 303 305 303 301 302 302 302 303 306 308 307 306 305 305 305 305 303 304 305 304 303 303 305 307 309 310 312 315 316 317 318 319 320 320 320 320 319 319 318 318 318 319 318 317 318 317 317 318 318 319 319 319 319 319 318 319 320 322 322 323 323 323 325 326 326 326 329 331 331 332 333 331 332 332 332
308 311 311 306 302 300 299 300 301 301 301 301 301 302 303 303 304 303 304 304 304 303 300 302 300 301 301 302 304 305 308 306 304 302 304 304 305 303 302 304 305 304 303 305 304 304 305 306 307 310 313 314 315 316 316 317 317 317 317 316 316 316 316 316 316 316 316 315 314 315 315 315 315 316 316 316 315 316 317 319 320 320 320 320 322 323 323 323 326 329 330 329 328 327 327 326 326
307 308 309 303 301 301 301 300 302 302 300 301 301 302 302 303 302 301 302 301 302 301 302 301 302 304 300 301 304 303 305 304 304 304 304 304 303 303 302 302 303 303 304 304 304 304 304 305 305 305 307 310 312 313 313 314 314 314 314 314 314 314 313 314 314 314 313 312 312 312 312 312 313 313 313 313 313 314 315 316 317 317 317 317 319 319 320 320 323 325 326 324 324 324 324 323 323
309 309 306 302 301 301 301 298 301 300 301 300 302 301 303 302 301 303 303 303 303 301 302 304 303 304 301 302 302 301 302 304 304 304 303 302 302 303 303 301 302 303 303 304 303 303 304 303 303 303 303 304 307 309 310 311 311 312 312 312 312 311 311 310 311 311 311 310 309 309 309 308 309 309 310 311 310 311 311 312 314 315 315 315 316 317 317 317 319 320 321 321 321 320 320 319 319
309 311 308 302 298 301 299 301 299 299 300 302 302 299 302 301 303 303 304 301 302 302 302 305 302 303 302 301 299 300 302 305 303 303 302 302 302 301 302 302 303 301 303 302 301 302 302 302 302 303 303 303 305 306 306 307 308 309 309 309 309 308 308 308 308 308 308 307 306 305 305 305 305 307 307 308 308 308 308 309 311 313 313 313 314 314 315 315 316 317 317 317 317 318 317 316 316
310 308 307 304 301 299 301 298 300 299 301 302 300 299 299 301 299 301 302 301 303 302 300 304 305 301 301 300 302 301 303 305 302 302 302 301 301 301 302 302 302 302 301 300 301 301 300 301 301 302 303 303 303 304 304 303 305 306 306 307 306 306 306 305 305 304 304 304 303 303 303 302 303 303 303 304 305 305 305 305 307 310 311 311 312 312 313 313 314 315 315 316 316 315 315 314 314
312 309 306 302 299 299 301 299 297 298 301 302 299 300 300 299 299 300 302 301 302 301 302 301 302 302 301 303 300 303 304 303 302 301 300 300 300 300 300 300 299 300 301 301 300 302 301 301 302 301 302 302 302 302 304 302 301 302 303 304 304 303 303 303 303 302 301 301 301 301 301 303 303 303 302 303 302 303 302 303 304 307 308 308 309 309 310 311 312 312 313 313 314 313 312 312 312
310 312 301 301 298 297 301 299 299 298 303 301 297 299 299 299 298 299 297 298 300 300 299 301 301 299 300 299 298 302 304 302 302 299 299 298 297 297 298 298 299 298 300 300 300 299 301 300 300 301 301 301 301 301 302 302 301 301 301 301 301 301 301 301 301 300 301 301 301 302 303 303 303 303 303 302 302 302 300 301 302 304 306 305 306 306 307 308 309 311 311 312 311 311 309 309 309
311 304 302 300 302 299 303 301 302 302 301 302 298 300 301 300 297 299 298 298 299 298 299 300 299 298 299 298 298 302 302 301 299 297 297 297 297 295 296 297 298 297 298 298 299 299 299 300 300 300 300 300 300 301 301 302 302 301 302 301 301 300 300 300 300 300 301 302 301 301 302 301 302 302 301 301 302 301 301 299 300 302 304 304 303 305 305 306 307 308 309 309 309 309 307 309 309
306 303 301 299 302 303 303 303 304 301 302 302 301 300 301 302 301 299 299 299 298 298 298 300 299 300 298 296 298 300 300 300 298 297 296 296 296 295 296 297 297 298 298 298 298 298 300 299 299 298 300 300 300 300 301 301 301 301 301 301 301 300 300 300 300 300 300 300 301 301 300 300 301 301 299 299 300 299 299 299 299 300 301 301 302 303 303 304 305 306 307 307 307 306 306 307 306
305 303 300 301 305 303 301 302 302 302 301 300 299 299 298 300 301 300 298 301 298 298 300 298 298 300 299 297 298 299 300 299 299 297 297 297 297 296 296 296 296 297 298 298 298 299 299 299 300 299 299 300 300 300 301 300 300 301 301 301 301 301 300 300 300 300 300 300 300 300 299 300 301 300 299 298 301 301 301 301 298 298 299 300 299 301 301 302 304 303 304 304 304 306 305 305 305
304 301 301 302 301 301 303 301 302 301 300 301 301 298 297 300 300 299 300 299 298 300 303 303 301 301 302 297 298 299 299 298 298 298 297 297 297 298 297 297 297 297 298 299 298 297 298 298 299 299 300 300 300 299 300 299 300 300 300 300 300 300 300 300 300 300 300 300 300 300 300 300 300 300 300 300 300 300 300 300 300 300 300 301 298 300 300 300 301 302 302 302 303 303 303 304 304
304 302 301 301 300 300 302 301 299 299 296 299 299 297 299 300 298 298 300 299 301 303 304 305 305 306 301 297 298 298 298 298 297 297 297 297 297 296 297 298 298 298 298 297 297 297 298 298 299 298 299 299 299 299 299 298 300 299 299 299 300 300 300 299 299 299 298 299 299 299 299 299 299 299 299 299 299 299 298 298 298 298 298 299 298 298 298 298 298 299 300 301 301 302 302 303 303
301 302 299 299 301 301 300 300 297 297 298 298 297 301 299 298 299 300 299 300 304 301 302 304 305 306 303 300 298 297 297 297 297 297 297 297 297 297 296 297 296 296 297 297 297 297 297 297 299 299 298 298 299 299 299 299 299 299 299 299 300 298 299 299 298 298 298 298 298 298 298 297 297 297 297 297 297 297 297 297 296 297 297 297 297 297 297 297 297 297 298 299 299 300 301 302 302
300 301 300 300 299 300 300 299 295 297 298 299 299 298 299 298 297 300 298 301 304 300 299 298 299 302 301 298 298 297 298 297 297 298 298 298 297 297 297 296 296 297 297 297 297 297 297 297 297 298 298 298 298 298 297 297 298 298 298 298 299 297 298 297 297 297 298 297 297 296 297 297 296 296 296 296 296 296 296 296 296 296 296 296 296 296 296 296 296 296 297 297 297 298 299 300 301
300 300 300 299 296 300 299 298 297 297 297 296 296 297 299 300 299 295 297 301 303 302 298 297 298 299 299 299 297 298 298 298 298 298 298 298 298 298 298 297 297 298 297 297 297 296 297 297 296 297 297 297 297 297 297 297 297 298 298 298 297 297 297 297 296 297 296 296 296 296 296 296 295 295 295 295 295 295 295 295 295 295 295 295 295 295 295 294 295 295 296 296 296 296 297 298 299
300 300 300 300 300 300 298 297 297 297 298 296 297 298 299 297 297 296 300 302 303 304 299 298 297 298 298 298 298 298 297 298 298 297 296 298 298 297 297 296 296 295 297 296 297 297 297 296 296 296 297 297 297 297 297 297 297 297 297 297 297 297 296 296 296 296 295 295 295 295 295 295 294 294 294 294 294 294 294 295 294 294 294 294 294 294 293 293 293 294 294 294 295 295 296 296 297
299 299 299 299 300 298 298 298 298 295 297 297 297 299 299 295 297 298 302 297 300 300 299 297 297 297 298 298 298 298 298 298 297 298 297 296 297 296 297 297 296 295 297 296 296 297 297 296 296 296 297 298 298 297 297 296 297 296 297 297 297 297 296 296 296 296 295 295 294 294 295 294 294 294 293 293 293 293 294 294 293 293 293 293 293 293 293 293 293 293 293 293 293 293 294 295 296
298 297 297 297 298 297 298 296 296 297 298 296 298 298 297 296 297 297 301 295 298 298 297 296 296 298 298 297 297 298 297 299 298 297 295 294 295 295 296 295 295 296 296 296 296 297 296 296 296 296 297 297 297 296 297 296 296 296 297 296 296 296 296 295 295 295 295 294 294 294 294 294 293 293 293 293 292 292 292 292 293 293 292 292 292 292 291 292 292 293 293 293 293 293 293 294 295
296 296 297 299 299 299 299 297 297 296 298 296 298 296 294 295 295 301 299 295 296 298 297 296 296 297 298 297 297 296 296 297 297 296 296 296 296 296 296 296 296 295 297 297 296 297 295 296 296 296 296 297 296 295 296 296 296 295 296 296 296 296 295 295 295 295 294 294 294 294 293 293 293 292 292 292 292 292 292 292 292 292 292 291 292 292 292 292 292 292 292 293 293 293 293 293 294
296 297 297 297 298 298 297 295 295 295 297 295 297 293 298 297 299 302 296 296 295 295 297 296 296 296 296 296 296 296 296 296 296 296 297 297 296 296 296 296 296 296 296 296 297 295 296 297 297 297 296 296 296 295 295 295 295 296 295 295 295 295 294 294 294 294 294 294 294 293 293 293 292 292 292 292 291 291 291 291 291 291 291 291 291 291 290 291 290 291 291 291 291 291 291 292 292
297 295 296 296 295 296 296 297 295 296 295 294 296 294 297 301 301 303 297 297 296 297 298 298 296 295 295 295 295 295 295 296 296 296 297 298 296 296 297 296 296 296 296 296 295 295 296 297 297 295 296 296 295 295 295 295 295 295 294 294 295 295 294 294 293 294 293 293 293 293 293 292 292 291 291 290 290 290 290 290 290 290 290 290 290 290 289 290 290 290 290 290 290 290 291 291 291
296 295 295 296 294 297 297 296 295 297 295 295 297 293 296 300 303 301 297 296 296 296 299 298 297 295 295 294 294 294 295 295 296 296 296 296 296 295 296 295 295 295 295 295 295 296 295 295 296 296 296 296 295 295 295 295 294 294 294 295 294 294 294 293 293 293 293 293 292 293 292 292 291 291 290 290 289 290 289 289 289 290 289 289 289 289 289 289 289 289 290 290 288 289 289 289 290
296 294 295 295 295 296 296 296 295 294 295 295 296 295 298 299 299 294 292 294 294 296 297 298 298 296 295 294 294 294 294 294 294 294 295 295 295 295 295 295 295 295 295 295 295 295 294 295 295 295 295 295 295 294 295 295 294 294 293 293 293 294 293 293 292 293 293 293 292 292 292 291 291 291 290 290 289 289 289 289 289 289 289 288 288 288 288 289 288 289 289 289 289 287 287 288 289
297 295 294 299 294 296 294 294 293 294 294 295 295 293 296 299 300 295 291 295 294 294 297 298 298 297 296 295 294 294 293 294 293 293 294 295 295 294 295 295 295 295 295 295 296 295 294 295 295 295 295 295 294 294 294 294 294 294 293 293 293 292 293 292 292 292 292 292 292 291 292 291 290 290 290 289 289 289 289 288 289 288 288 288 288 288 288 289 289 288 287 288 288 287 287 287 287
296 295 294 294 294 293 294 295 294 293 293 293 295 294 294 297 299 301 298 294 296 297 298 298 299 298 297 296 295 294 294 294 294 295 295 294 294 294 294 294 294 295 294 295 295 294 295 295 295 295 295 294 294 294 294 294 293 293 293 293 292 292 292 292 292 291 292 292 291 291 291 291 290 290 290 289 288 288 288 288 288 288 288 287 287 287 288 288 288 287 286 286 287 287 286 287 287
296 295 295 294 293 294 294 296 293 293 293 292 293 292 295 297 298 300 301 296 296 297 298 298 298 299 298 296 296 294 294 294 296 296 296 295 294 293 293 294 294 294 294 294 294 294 294 294 294 294 294 293 293 293 293 293 292 292 292 292 291 291 292 291 292 291 292 291 291 290 291 291 290 289 289 289 288 288 287 287 287 287 287 287 286 286 287 286 286 286 286 285 285 286 287 287 288
295 296 295 294 295 296 298 294 292 290 291 292 294 294 294 295 297 298 299 298 296 296 296 297 298 298 297 297 296 295 294 294 297 297 296 295 294 293 293 293 293 293 293 293 293 294 293 293 293 293 293 293 293 292 292 292 291 291 291 291 291 291 291 291 291 291 291 291 291 290 290 290 290 289 289 289 288 287 287 287 287 287 287 286 286 286 286 286 286 286 285 285 285 284 285 287 287
295 295 294 294 296 292 295 293 290 292 291 293 294 293 293 294 296 297 299 297 296 298 298 298 298 298 298 298 297 295 295 297 297 295 295 295 293 293 292 292 293 291 292 292 292 293 293 293 293 293 293 293 292 292 292 292 293 292 291 291 291 291 290 290 290 291 290 291 290 290 290 290 290 289 288 288 288 287 287 286 286 286 286 286 286 286 286 285 285 285 285 284 286 284 284 286 286
293 294 295 293 294 295 296 291 290 291 290 290 293 291 292 294 296 298 298 298 299 299 299 300 300 300 300 299 298 297 295 295 294 294 294 293 293 292 292 292 292 292 292 292 293 293 293 293 293 293 293 292 292 293 292 292 292 292 291 291 290 290 291 290 290 290 290 290 290 290 290 289 289 289 289 288 287 287 286 286 286 286 286 286 285 285 285 285 285 284 284 283 283 285 285 287 286
293 292 292 291 295 291 292 292 289 290 291 292 292 289 291 294 296 297 298 298 299 300 300 301 301 300 300 300 299 297 295 295 294 293 292 292 292 292 291 291 291 292 292 291 292 292 292 292 292 293 292 293 293 292 292 293 292 292 291 291 291 290 290 290 290 290 290 289 289 290 289 289 289 288 288 288 287 287 286 286 286 285 285 286 285 284 284 284 284 284 284 283 283 281 284 284 286
294 295 294 294 295 294 292 292 290 291 290 288 289 291 292 295 295 296 296 294 293 295 296 298 300 302 302 303 300 299 297 296 295 293 292 291 291 291 291 291 291 291 291 291 292 292 291 292 293 293 292 292 292 292 292 292 291 290 290 290 290 289 289 288 288 288 289 289 288 289 289 289 288 287 287 287 287 286 286 286 285 285 285 285 285 284 284 284 284 284 284 283 283 282 281 283 284
293 294 294 296 295 293 292 290 291 291 291 290 289 287 289 296 296 297 298 295 294 295 293 295 297 299 299 298 298 299 299 298 296 294 292 292 291 291 291 291 291 291 291 292 293 292 292 292 292 292 292 292 292 292 292 291 290 289 289 288 287 287 287 288 287 288 289 288 288 289 288 288 288 287 287 286 286 286 285 285 285 285 285 284 285 284 284 284 284 284 284 283 282 283 282 281 281
291 294 295 294 294 292 291 290 290 288 287 290 290 286 284 292 292 294 295 294 295 296 293 295 298 299 299 298 298 297 297 297 297 296 294 292 291 291 290 290 290 290 291 292 293 292 292 292 293 292 292 291 292 292 292 291 290 290 289 289 289 289 288 289 289 288 288 288 288 287 288 288 288 287 286 286 286 285 285 285 285 285 284 284 284 284 283 283 283 284 283 283 283 283 282 280 281
291 291 289 291 291 291 291 290 291 290 291 290 289 291 285 286 291 295 296 294 295 297 298 300 301 301 300 299 298 298 298 297 296 295 294 293 292 291 290 290 290 290 292 292 292 292 292 292 292 292 292 291 292 291 291 290 289 289 289 288 288 288 288 288 288 288 288 287 287 287 287 287 287 286 286 285 285 285 284 284 284 284 284 284 283 283 283 283 283 283 283 283 283 282 282 280 280
293 288 291 292 291 292 291 291 290 289 286 285 288 291 285 285 291 294 294 293 293 295 297 299 301 303 301 301 298 298 298 297 296 295 294 294 292 292 291 290 291 291 292 291 291 292 292 292 292 292 291 291 291 291 290 290 290 289 289 288 287 288 288 288 288 287 286 287 286 286 286 286 286 286 285 285 285 284 284 284 284 283 283 283 283 283 283 283 283 282 282 282 282 282 282 282 281
289 288 289 289 290 289 290 289 289 288 285 283 287 289 284 286 290 289 289 292 293 295 298 299 301 302 302 300 298 298 297 297 296 296 296 295 294 293 292 292 291 291 292 292 292 292 292 292 291 291 290 291 291 290 290 290 289 289 288 288 287 287 288 287 287 286 286 286 285 285 285 285 285 285 285 285 284 284 284 284 283 283 283 283 282 283 283 282 282 282 282 282 282 281 281 281 280
289 292 293 290 290 289 288 288 288 286 281 284 289 289 288 283 291 291 288 291 294 297 298 299 301 301 300 299 298 298 296 296 296 295 295 295 294 293 292 291 290 291 291 291 291 291 291 291 291 290 290 290 291 290 289 289 289 288 288 288 288 287 287 286 285 285 285 285 284 284 284 284 284 283 284 284 284 283 283 283 283 283 283 282 282 282 282 282 282 282 282 281 281 280 280 281 280
292 291 291 291 289 287 286 286 286 282 282 288 289 290 289 281 288 292 295 296 298 298 297 298 299 300 302 301 298 296 295 295 295 294 294 294 293 292 291 290 290 290 290 290 291 291 291 291 291 289 290 290 290 289 289 288 288 288 288 288 287 287 286 285 284 284 284 284 283 283 283 283 283 283 283 282 283 283 282 282 282 282 282 282 281 282 282 282 281 281 281 281 280 281 281 280 280
290 291 291 287 286 286 283 283 279 280 281 285 283 287 285 284 290 294 294 295 295 297 299 300 300 301 303 302 298 296 296 295 294 294 293 292 292 291 290 290 289 289 288 289 290 290 290 290 290 289 289 289 289 289 288 288 288 287 287 287 286 286 285 285 284 284 284 283 283 282 282 281 282 282 282 282 282 282 281 281 281 281 281 281 281 281 281 281 281 280 280 280 280 280 280 280 279
289 289 288 286 282 282 278 283 282 282 286 285 284 287 282 289 291 295 294 296 298 298 297 299 301 302 303 302 298 295 294 294 294 294 293 293 292 291 290 290 289 289 289 289 289 290 290 290 289 289 289 289 288 288 287 287 287 287 287 286 286 285 284 284 283 283 283 283 282 282 281 281 280 281 281 281 281 281 281 281 281 280 281 281 281 280 280 281 280 280 280 279 279 280 280 279 279
289 294 292 289 287 283 279 282 280 282 285 282 284 282 283 284 289 295 297 298 299 298 298 298 298 299 297 293 294 294 293 293 294 293 293 293 292 292 290 289 289 289 288 289 289 289 290 289 289 289 288 288 288 287 287 287 286 286 286 285 285 284 283 283 283 283 282 282 281 281 281 280 280 280 280 280 280 280 280 280 280 280 280 280 280 280 280 280 280 280 279 279 279 279 279 279 278
290 292 292 288 287 291 284 285 284 282 283 283 280 283 289 289 292 293 291 296 297 298 298 296 295 295 295 292 292 293 293 293 292 292 293 293 292 291 290 289 289 289 289 289 289 289 289 289 289 289 288 288 287 287 286 286 286 285 285 284 283 283 283 282 282 282 281 281 280 280 279 279 279 279 280 279 279 279 279 279 279 279 279 279 279 279 279 279 279 278 278 278 278 279 278 278 278
288 289 285 289 292 291 286 283 280 278 281 280 287 285 289 293 292 292 294 293 294 295 295 295 295 296 296 294 295 295 295 294 293 292 292 292 291 291 290 290 289 289 288 288 288 289 289 289 288 288 288 287 287 286 286 285 285 284 283 283 282 282 281 281 281 281 280 280 279 279 279 279 279 279 279 279 278 278 278 278 278 278 278 278 278 278 278 278 278 278 277 277 277 278 278 278 278
288 284 289 290 294 293 287 282 284 282 280 282 286 283 286 287 285 291 293 291 293 292 293 293 294 295 295 296 297 296 297 296 294 293 292 292 291 290 290 290 290 289 289 288 288 289 289 289 288 288 287 286 286 286 285 284 284 283 282 282 281 281 280 280 280 279 279 278 278 278 278 278 278 278 278 278 278 278 278 277 277 277 277 277 277 277 277 277 277 277 277 277 278 278 278 278 278
289 288 294 288 284 283 286 284 277 278 278 280 285 286 287 288 288 287 288 289 291 292 293 292 292 293 294 295 296 296 296 295 293 291 291 290 290 290 290 289 290 289 289 289 289 289 289 289 288 288 287 286 286 285 285 284 283 282 282 281 280 280 279 279 279 278 278 277 277 277 277 277 277 277 277 277 277 277 276 276 276 276 276 276 277 277 277 277 277 276 276 277 277 277 277 276 277
289 289 288 289 288 287 283 285 285 285 280 280 280 285 284 293 292 293 293 292 292 292 291 292 293 294 294 295 295 296 296 295 294 292 291 290 290 290 290 289 289 288 288 289 288 289 288 288 288 287 287 286 285 284 284 282 282 281 280 280 280 279 279 278 278 277 277 276 277 276 276 276 277 277 276 276 276 275 275 275 275 275 275 276 275 276 276 275 275 275 275 275 275 275 275 275 275
284 286 286 286 286 287 288 286 284 284 281 281 280 280 285 292 295 294 294 295 294 293 292 294 294 295 296 296 296 296 296 296 294 293 291 290 290 289 289 289 289 289 288 288 288 287 287 288 287 287 285 285 284 284 283 282 281 280 279 279 278 278 277 277 276 276 276 276 276 276 276 276 276 275 276 275 275 275 275 275 274 274 274 274 274 274 274 274 273 273 273 273 273 273 273 273 274
289 287 286 287 284 283 280 280 285 282 283 279 280 279 286 293 292 295 294 294 295 295 295 295 294 294 295 296 296 296 296 295 295 294 292 291 290 289 289 288 288 287 287 286 287 287 286 286 286 286 285 284 283 282 282 280 280 279 278 278 277 276 276 275 275 275 274 275 275 275 275 275 274 275 275 274 274 274 274 274 273 273 272 272 272 272 272 272 272 271 271 272 271 271 271 271 272
Wind_Speed
3 3 3 2 2 2 3 1 4 3 3 1 2 4 4 3 0 5 5 5 6 3 1 1 1 7 7 2 3 3 3 4 1 5 1 3 4 4 3 2 2 2 2 4 6 6 8 11 11 12 13 13 14 14 14 15 15 15 14 15 15 15 15 16 15 15 15 16 15 16 16 16 16 16 16 15 15 14 15 14 14 13 13 11 10 10 11 12 12 12 12 12 11 10 9 6 4
2 3 2 1 0 2 3 2 2 2 1 3 2 1 5 5 4 9 9 11 1 5 5 3 3 2 5 5 4 3 2 3 4 3 3 4 5 4 3 2 2 3 4 5 5 5 8 10 11 12 13 13 14 14 14 15 15 15 15 16 16 16 16 15 15 14 14 16 16 16 16 15 16 16 16 16 15 15 14 14 14 14 13 13 12 11 11 11 11 11 12 12 11 11 12 12 8
3 4 3 2 2 3 2 2 4 2 3 3 4 5 5 7 9 8 7 8 6 8 8 7 6 3 1 1 4 5 2 2 3 3 4 6 6 4 3 3 2 3 5 4 5 6 6 9 10 12 13 13 14 14 15 15 15 16 16 16 16 16 16 16 16 16 16 17 17 17 17 17 17 17 17 17 16 16 16 15 13 13 13 12 12 12 11 12 12 12 12 11 11 10 11 12 13
2 1 1 2 2 1 3 3 4 3 4 2 1 7 8 9 9 6 4 7 9 10 8 8 8 2 4 9 2 2 2 3 4 5 5 7 2 6 4 3 1 4 4 3 5 7 8 9 11 12 13 13 14 15 15 15 16 16 16 16 16 16 16 16 16 16 16 16 16 17 16 17 17 16 16 16 15 15 15 15 14 14 14 14 14 13 12 12 12 11 11 11 11 11 12 11 11
1 1 2 2 3 3 2 1 2 2 5 3 1 7 10 8 7 6 6 8 9 6 4 5 3 2 3 4 2 3 3 5 4 2 3 4 4 5 5 2 2 4 5 5 5 7 8 11 11 12 13 13 14 15 15 15 16 16 16 17 17 17 17 17 17 17 17 17 17 17 17 17 17 17 17 17 16 16 16 16 16 16 15 15 15 15 14 14 13 13 13 12 11 12 12 11 11
2 2 2 2 3 3 2 3 4 6 2 0 2 4 11 7 8 8 10 8 7 2 2 6 2 6 4 2 1 1 3 4 5 4 4 5 6 5 4 3 4 5 5 6 6 6 8 10 11 12 13 14 14 15 15 15 16 16 16 16 16 16 17 17 17 17 17 17 17 17 17 17 17 17 17 17 17 16 16 16 16 15 15 15 15 14 14 16 16 15 14 14 13 14 13 13 12
3 4 2 3 2 2 4 4 4 3 2 2 2 2 10 8 7 12 10 7 6 5 3 4 2 4 4 3 3 2 3 1 5 4 1 8 7 5 4 5 5 7 6 5 5 7 10 11 12 12 13 13 14 14 15 15 15 16 16 16 16 16 17 17 17 17 17 17 17 17 17 17 17 17 17 17 17 17 16 16 16 16 16 16 16 15 15 15 15 15 15 15 15 14 13 13 13
2 3 2 4 2 3 4 3 4 3 1 2 3 2 8 9 10 11 13 12 9 7 8 5 5 5 2 1 4 4 1 1 3 7 9 8 7 5 3 5 6 7 6 5 5 6 10 12 12 13 13 13 13 14 14 15 15 15 16 16 16 16 17 17 17 17 17 17 17 17 17 17 17 17 17 16 16 16 16 16 17 17 17 17 16 16 16 16 16 15 15 15 15 14 14 14 14
1 2 1 3 4 1 2 4 2 1 3 2 3 3 4 9 12 11 13 9 5 6 6 8 6 6 4 6 3 3 3 3 5 7 8 9 7 5 3 4 7 6 6 5 5 6 7 11 12 12 13 13 14 14 14 15 15 15 16 16 16 16 16 17 16 17 17 17 17 17 16 16 16 16 16 17 17 16 16 16 16 16 16 16 16 16 16 16 16 16 16 16 15 16 15 15 15
2 3 3 2 2 5 2 3 4 2 3 1 2 4 6 6 10 9 13 10 5 5 4 5 5 8 4 6 2 4 5 8 8 9 8 8 7 6 7 7 7 7 6 6 5 6 6 9 11 12 12 13 14 14 14 15 15 15 15 16 16 16 16 16 16 16 16 16 16 16 16 17 16 16 16 17 17 17 17 17 17 17 17 17 17 17 17 16 16 16 16 17 17 16 16 16 16
3 2 2 4 4 5 5 2 5 2 4 0 3 4 5 6 8 8 8 6 4 4 6 5 4 9 5 3 2 5 7 9 11 11 9 8 7 7 7 6 5 6 7 6 5 5 5 7 11 12 12 13 13 14 14 14 15 15 15 16 16 16 16 16 16 16 16 16 16 16 16 16 16 16 17 17 17 17 17 17 17 17 17 17 17 17 17 17 17 16 16 17 17 17 17 17 17
3 3 3 4 5 5 2 4 1 2 1 2 5 7 4 10 7 8 10 10 7 5 7 12 2 8 6 2 3 6 9 10 10 10 9 8 7 7 7 6 6 6 6 6 5 5 5 5 6 9 12 12 13 13 14 14 14 14 15 15 15 15 15 15 15 15 15 15 15 15 16 16 16 16 16 17 17 17 17 17 17 17 17 17 17 17 17 17 17 17 16 16 16 16 17 17 18
3 1 4 4 1 2 1 3 2 1 3 8 7 6 6 11 13 11 10 9 5 8 8 14 4 7 5 5 4 7 11 12 10 11 10 8 8 6 6 7 6 6 6 5 6 6 5 5 6 7 8 10 12 13 13 13 13 14 14 15 15 15 15 15 15 15 15 15 15 15 15 14 14 15 15 16 16 16 16 17 17 17 17 17 17 17 17 17 17 16 16 16 16 16 16 17 17
3 1 2 3 2 1 3 2 0 4 5 4 3 6 9 9 12 5 6 11 10 11 2 8 3 4 6 1 5 8 10 14 12 12 9 9 7 7 7 7 7 6 5 5 6 6 5 6 5 5 5 6 6 8 12 12 12 13 14 14 14 14 14 14 14 14 14 13 13 12 13 13 13 13 14 15 15 16 16 16 17 17 17 17 17 17 17 16 16 16 16 16 16 16 16 16 16
1 1 1 1 1 1 2 4 1 4 3 6 6 9 8 4 2 4 9 13 11 5 4 1 4 4 3 11 4 9 13 16 14 12 10 9 9 8 7 6 6 5 5 5 5 5 6 5 5 5 5 5 5 5 6 9 12 12 13 13 14 14 14 14 14 14 13 12 12 11 9 10 10 12 11 12 13 14 14 13 15 15 16 16 16 16 16 16 16 16 16 16 16 16 16 15 14
1 2 0 3 2 3 2 5 2 2 3 5 5 3 10 3 3 5 5 3 2 1 5 7 6 6 3 4 6 1 15 17 14 12 10 10 8 7 7 7 6 5 4 5 5 4 4 5 4 4 4 5 5 5 6 7 9 11 12 12 13 13 13 13 13 12 12 11 10 9 7 7 8 8 11 9 11 12 14 12 13 14 14 15 15 16 16 16 16 16 16 16 17 16 16 16 12
1 3 3 3 6 4 3 4 6 3 3 4 6 8 11 7 4 2 3 3 5 6 9 3 10 0 3 4 3 1 15 16 14 14 12 10 8 7 7 6 6 5 3 4 4 5 5 5 5 4 5 5 5 5 5 5 5 6 8 10 11 12 11 11 11 10 9 9 9 8 5 8 6 6 8 8 9 9 11 12 13 13 13 13 14 13 13 14 15 15 16 16 17 17 16 15 10
2 4 3 5 2 4 4 6 7 3 2 5 8 10 9 8 6 5 4 5 5 2 9 5 6 7 3 3 0 6 14 17 16 16 13 11 10 9 8 8 8 7 6 5 5 5 5 5 5 5 5 5 4 4 3 3 4 5 6 6 6 7 8 8 8 8 8 7 8 7 6 6 5 6 7 8 6 8 8 11 11 12 12 13 14 13 12 12 14 14 14 15 16 15 15 8 8
3 2 3 5 2 0 2 1 4 3 2 1 6 8 9 6 10 7 7 8 9 8 9 8 10 11 6 4 5 12 16 16 17 17 16 16 13 13 10 8 8 8 7 6 6 6 5 5 5 5 5 5 5 5 3 3 3 3 4 4 4 6 7 7 6 7 7 6 6 5 5 5 5 4 5 5 5 5 5 8 10 9 10 10 14 11 11 11 14 12 12 13 13 12 8 7 7
0 3 5 4 1 2 3 3 4 5 2 3 6 7 7 3 4 7 8 7 7 13 10 9 13 15 14 9 10 14 17 17 17 18 18 17 15 14 12 11 10 9 8 7 7 5 5 5 5 5 5 4 4 3 3 3 2 2 2 3 3 3 4 4 5 6 5 6 5 4 4 4 3 3 2 3 4 4 4 3 6 6 7 7 13 7 9 9 13 11 11 12 8 7 7 7 7
3 3 5 0 2 3 3 6 5 3 3 3 5 4 6 6 5 8 5 8 13 13 14 13 16 18 14 13 14 15 18 18 18 18 17 16 15 12 11 11 10 9 8 7 6 7 7 6 6 5 4 4 4 4 3 3 2 2 2 3 3 3 3 4 4 4 5 5 5 4 4 4 3 4 4 4 5 5 5 5 5 6 6 6 9 6 6 7 7 7 7 8 7 7 7 7 7
2 4 3 2 3 5 2 3 2 3 1 2 4 7 7 6 3 10 9 12 13 10 15 16 14 11 13 15 17 16 18 19 20 19 20 19 19 16 12 10 9 8 8 8 8 8 8 7 6 6 5 4 3 3 3 3 1 2 2 2 3 3 3 3 4 4 4 5 5 5 4 4 5 4 5 5 5 5 5 6 6 6 6 6 6 6 6 6 7 6 7 7 7 7 7 8 8
4 4 3 2 2 5 2 1 2 5 4 6 6 5 5 8 6 10 13 19 11 7 6 4 10 7 11 14 16 17 19 21 21 21 21 19 18 16 14 11 10 9 8 8 8 8 8 8 7 6 6 5 4 3 3 3 3 3 3 3 2 3 3 3 4 4 4 5 5 5 5 5 5 5 5 6 6 6 6 6 6 6 6 6 6 6 6 6 6 6 6 7 7 8 8 8 8
3 3 2 2 3 7 2 1 2 5 5 6 0 2 7 5 11 3 13 20 16 5 3 1 1 3 12 15 18 20 22 22 23 22 21 20 19 18 14 13 11 8 9 9 9 8 8 9 9 8 6 6 5 4 4 4 3 3 3 3 3 3 3 3 3 4 3 4 6 5 5 4 5 5 5 5 5 5 5 5 5 5 5 5 6 5 6 6 6 6 6 7 7 7 8 8 7
5 6 3 1 1 6 2 2 3 4 6 2 2 5 8 8 5 3 15 17 14 9 5 3 3 6 10 14 17 17 17 18 18 18 14 13 13 13 11 9 11 10 11 11 9 9 10 8 9 8 7 7 5 5 4 4 4 3 3 3 3 2 3 3 3 3 4 4 5 6 6 5 5 5 5 5 5 5 5 5 5 5 5 5 5 5 5 6 6 6 6 7 7 7 7 7 8
7 2 1 1 4 2 1 3 4 4 2 3 5 10 4 1 3 12 24 16 12 11 7 6 6 8 11 14 16 17 17 19 17 17 17 12 12 14 13 12 11 13 12 11 10 9 9 9 9 9 8 7 6 5 4 4 4 4 3 3 3 3 3 3 3 3 3 4 4 5 5 5 4 4 5 5 5 5 5 5 5 5 5 5 5 5 5 5 6 5 6 6 7 7 7 7 8
1 1 3 6 3 3 1 5 2 1 4 4 8 11 4 3 3 12 3 2 3 7 8 6 9 11 12 11 13 15 16 19 20 15 12 12 12 15 14 12 13 13 12 12 11 9 9 9 9 9 8 7 6 6 5 5 4 4 3 3 3 3 3 3 3 3 3 3 3 4 3 4 3 3 4 5 5 5 5 5 5 5 5 5 5 6 6 6 6 5 6 6 6 7 7 7 8
1 3 4 7 7 7 7 3 5 2 6 6 7 11 2 1 3 18 4 3 5 8 8 8 10 12 11 13 12 13 14 14 13 14 19 17 15 15 16 15 15 14 14 13 11 10 10 11 10 9 9 8 7 6 5 5 4 4 3 3 3 3 3 3 3 3 3 3 3 2 2 3 2 2 3 4 5 5 5 5 5 5 5 5 5 5 7 6 6 6 6 6 7 6 7 7 7
1 2 7 2 4 7 7 7 3 4 5 4 2 8 10 7 12 22 4 4 5 6 8 9 11 11 10 11 11 11 13 12 13 14 18 17 13 13 17 15 14 13 10 13 12 12 13 12 10 10 9 9 8 7 5 4 3 3 3 2 3 2 2 2 3 3 2 2 1 2 2 2 2 3 4 5 5 5 5 5 5 5 5 6 6 7 7 6 6 6 6 6 6 7 7 7 7
1 2 3 7 5 8 4 2 2 5 1 3 2 11 7 17 22 12 7 6 5 5 8 9 9 9 9 10 11 11 11 12 15 17 15 14 14 15 16 15 15 12 11 11 12 13 11 8 7 7 8 8 7 6 5 4 4 3 3 3 3 2 2 2 2 2 1 1 1 1 1 3 3 3 4 5 5 4 5 5 5 5 5 7 7 6 6 6 6 6 7 6 6 7 7 8 8
4 1 2 4 5 3 3 3 5 6 3 3 2 9 15 6 13 8 7 7 8 10 10 10 9 9 9 10 11 12 14 14 16 16 14 14 13 13 15 14 15 14 10 12 15 15 12 9 7 6 8 8 7 6 5 4 4 4 3 3 3 2 2 2 1 1 1 1 0 1 1 2 3 3 4 4 5 4 5 5 5 5 6 7 6 6 6 6 6 7 6 7 7 7 7 8 9
1 4 4 2 4 2 2 5 7 6 3 3 4 10 16 16 5 6 5 6 7 11 11 11 10 10 10 10 12 12 13 13 14 14 15 13 13 13 15 16 16 15 15 13 13 12 12 10 9 7 9 9 8 7 6 6 6 4 3 3 3 2 2 1 1 1 1 0 0 0 0 1 2 3 4 4 4 4 5 5 4 5 7 6 6 6 6 6 6 6 6 7 8 8 9 9 8
1 5 7 6 3 5 5 6 2 2 4 4 11 10 10 12 2 3 3 5 7 10 11 12 13 12 12 11 11 11 11 12 13 14 15 14 13 13 14 15 16 16 14 14 14 12 12 11 11 10 10 10 9 8 7 6 5 5 4 4 3 3 1 2 1 1 1 1 1 1 0 1 2 2 3 4 4 4 5 5 5 5 6 6 6 6 6 5 5 5 6 6 7 8 9 11 10
5 2 6 2 7 4 6 5 3 2 5 8 11 9 17 18 10 6 5 7 7 9 13 15 13 11 12 11 11 11 12 13 15 17 19 16 13 15 14 14 15 15 13 14 14 14 13 12 10 10 9 9 8 8 8 6 5 4 4 3 2 2 2 1 1 1 2 1 1 1 1 2 3 3 3 4 4 5 5 5 5 5 5 6 5 6 5 5 5 6 7 6 7 8 8 9 10
5 3 5 7 5 9 11 6 3 4 3 9 9 14 20 21 20 18 7 10 9 14 16 17 16 14 12 11 12 14 13 14 16 16 17 16 14 14 13 13 13 14 12 15 14 13 11 10 9 10 10 9 8 8 7 5 5 4 3 3 3 3 3 2 1 2 2 2 2 1 2 3 3 4 4 4 4 5 5 5 5 5 5 5 6 6 6 5 5 6 7 8 7 7 8 9 10
10 7 9 7 9 8 7 4 3 4 6 8 14 14 18 19 20 18 13 9 11 16 18 17 17 14 13 13 12 12 13 16 12 12 15 14 13 14 13 12 12 13 13 14 15 13 12 11 9 9 10 9 8 7 6 6 5 5 5 4 4 4 2 2 2 2 2 2 2 2 3 4 4 4 4 4 5 5 5 5 6 6 5 5 6 6 6 5 7 8 8 8 9 8 7 8 9
2 1 3 9 10 12 10 2 3 2 3 14 18 17 19 22 21 20 18 6 10 16 18 19 15 13 13 13 14 13 13 15 9 11 13 14 14 13 12 12 12 13 14 15 15 15 14 12 12 12 10 10 8 8 7 7 6 5 4 4 4 3 2 2 2 2 2 2 2 4 5 5 5 5 5 4 4 5 5 5 6 6 5 6 6 6 6 7 7 7 7 7 8 9 8 7 8
7 7 6 10 6 13 1 0 4 3 4 7 7 11 18 21 19 20 19 10 20 23 21 18 19 16 14 15 14 12 13 7 8 10 12 12 12 13 12 11 14 17 16 16 17 16 14 14 13 11 10 10 9 8 7 6 5 5 4 4 3 2 2 2 2 2 2 3 4 5 5 5 5 5 5 5 5 5 6 6 6 6 6 6 6 7 7 7 7 6 6 7 6 7 8 7 7
4 7 5 5 12 6 9 1 4 2 4 11 9 13 18 21 20 21 21 21 17 19 20 22 19 18 14 13 12 10 10 12 11 13 13 13 15 15 13 13 14 17 17 17 16 15 15 13 12 12 10 9 8 7 6 6 5 4 3 3 2 2 1 1 1 2 2 4 5 5 5 5 6 5 5 5 5 6 6 6 6 6 7 6 6 6 6 6 6 6 6 7 8 6 7 6 5
6 5 5 12 2 3 7 3 3 4 5 8 9 16 18 21 20 23 22 18 16 14 17 19 16 20 21 14 9 10 12 13 14 15 15 14 15 15 15 14 15 15 14 15 15 17 13 12 12 12 10 9 8 8 6 5 5 5 3 2 2 1 1 1 3 4 5 6 6 6 6 5 5 5 5 5 5 6 7 7 7 7 7 6 6 6 6 6 5 6 6 7 7 10 7 7 5
6 8 10 11 7 6 7 4 4 4 5 2 11 14 15 14 11 8 5 1 4 12 11 15 17 17 16 2 4 10 14 13 12 13 14 15 16 18 19 16 13 15 15 16 16 16 11 14 13 12 10 10 8 8 8 7 6 5 4 3 2 3 4 5 5 5 6 5 5 5 5 5 5 5 5 6 6 7 7 7 7 7 7 6 6 6 6 6 6 6 6 7 7 8 11 8 7
5 9 15 13 5 10 2 3 7 6 6 3 5 13 13 6 7 5 2 2 5 5 7 12 14 13 8 11 12 9 11 11 13 15 16 18 18 17 15 15 15 15 16 16 15 15 13 13 13 12 10 9 9 10 10 7 7 6 6 5 5 5 6 6 6 5 4 4 4 3 4 5 5 5 5 6 7 7 7 8 8 7 7 6 5 5 6 6 6 6 6 6 8 8 9 10 10
4 6 9 14 11 3 1 2 1 6 6 2 4 4 18 7 6 7 3 5 9 4 7 12 10 9 8 8 8 10 12 10 10 11 13 16 17 16 17 17 18 18 17 14 13 14 15 13 13 13 11 10 10 10 11 8 7 7 8 7 6 6 5 4 3 2 3 3 3 4 4 3 4 5 6 6 6 7 7 8 7 7 7 6 5 6 6 7 6 6 6 6 7 7 8 10 10
8 2 2 4 5 7 6 4 6 9 4 3 3 7 15 14 9 5 7 8 6 10 14 14 13 10 10 8 8 10 10 11 11 14 16 16 16 19 20 20 18 19 15 14 14 13 16 15 14 14 11 11 10 10 11 10 8 8 8 8 7 7 7 5 4 4 3 4 4 5 4 4 4 5 6 6 6 7 8 8 7 7 7 6 6 6 6 7 6 7 7 8 8 8 9 10 11
1 1 1 4 4 3 5 5 5 3 6 8 9 8 8 14 6 7 6 10 9 16 17 16 15 9 8 9 8 11 11 11 12 12 15 16 17 18 17 17 18 16 14 15 15 14 13 13 13 13 13 12 11 13 11 11 9 9 9 8 8 7 6 5 4 4 4 4 5 5 5 5 6 6 6 7 7 8 8 8 7 7 7 7 6 6 7 7 9 9 9 9 9 9 8 10 10
3 5 8 7 5 6 2 3 3 5 2 10 9 11 8 22 10 7 1 6 11 13 14 15 15 7 6 6 7 9 8 9 11 13 12 13 14 15 16 14 15 15 12 13 13 12 12 12 13 15 15 13 12 14 12 12 12 9 10 10 10 8 6 5 4 4 4 4 5 5 5 5 5 5 6 7 7 8 8 7 7 7 7 6 6 7 8 9 9 10 10 10 10 11 9 10 11
9 5 6 4 3 2 2 1 3 3 10 12 11 17 14 16 3 11 11 9 12 12 10 9 8 5 7 6 7 7 8 9 9 10 10 10 11 12 13 15 15 13 11 14 13 13 13 13 14 16 16 13 13 14 14 13 12 11 10 10 11 9 8 6 5 5 4 4 5 5 5 5 5 6 6 6 7 7 7 7 6 6 6 6 7 7 8 8 8 9 9 11 12 12 11 11 12
6 3 3 1 3 3 2 1 3 5 10 3 8 15 18 13 4 6 7 5 11 12 12 12 10 10 7 6 7 7 8 8 7 8 9 10 10 12 12 15 16 16 14 16 14 14 14 14 14 17 16 15 14 14 13 12 11 11 10 10 10 9 8 6 6 6 5 5 6 6 5 5 6 6 6 6 6 5 6 6 6 6 6 6 7 7 8 8 8 9 9 9 10 11 11 11 12
3 5 3 2 3 2 3 3 4 8 9 2 2 5 6 22 20 2 5 5 8 10 7 7 9 8 7 5 6 6 6 6 8 8 9 10 12 13 15 16 15 17 18 19 17 15 15 14 17 19 17 16 15 14 14 13 12 11 10 10 9 7 8 7 6 6 5 5 5 6 6 6 6 6 6 6 6 6 5 6 5 6 6 6 7 8 9 10 10 10 10 11 11 12 11 12 12
9 10 7 4 6 4 6 7 1 5 4 3 4 1 13 15 10 15 14 12 13 10 11 8 7 7 7 4 5 5 5 6 7 8 9 10 11 12 14 16 16 15 17 18 18 16 14 13 17 19 17 16 15 14 14 13 12 11 10 9 8 7 7 7 6 6 6 5 5 6 6 6 6 7 7 7 6 6 6 6 6 7 8 9 9 10 10 10 10 10 11 11 12 11 11 14 14
12 6 9 7 4 3 5 5 7 8 6 2 6 2 7 1 3 7 19 20 16 9 8 9 5 4 2 3 1 2 4 7 6 7 9 11 12 13 13 14 14 15 17 17 16 16 14 15 16 19 17 17 16 15 12 13 11 11 9 8 8 6 6 6 6 5 5 6 5 6 6 6 6 6 6 6 7 7 7 7 7 8 9 9 10 10 10 10 11 11 10 11 11 11 12 13 14
4 0 4 1 10 5 9 2 3 4 7 8 7 9 2 7 4 2 2 1 11 11 9 8 8 9 5 3 5 7 7 7 7 7 8 10 11 11 11 12 13 13 17 15 17 16 15 17 17 19 18 17 16 15 13 12 11 9 10 9 8 7 6 5 5 5 5 5 6 6 7 7 7 6 6 7 8 7 7 7 8 9 9 10 10 11 11 11 11 11 11 11 13 10 12 15 14
7 6 8 6 6 6 3 1 2 1 1 16 4 11 13 6 11 9 4 7 12 9 10 9 11 11 8 7 8 8 7 7 7 8 8 10 9 11 12 13 12 13 15 17 20 19 20 17 16 18 16 15 15 14 12 11 11 10 10 9 8 8 8 7 6 6 6 6 6 7 7 7 7 7 7 6 7 7 6 7 8 9 9 10 11 11 12 12 12 12 12 13 14 13 13 15 14
10 7 6 5 2 4 2 6 1 2 7 13 1 17 20 8 10 8 11 13 9 9 13 12 12 8 9 10 10 9 8 8 8 8 7 9 10 12 12 12 15 17 18 18 19 16 16 15 17 17 16 17 15 13 12 11 11 10 10 10 9 8 7 7 6 6 6 6 6 6 7 7 7 6 6 7 7 6 6 7 8 9 9 10 10 11 11 12 12 12 13 13 13 14 14 13 14
2 1 2 5 4 5 2 0 5 4 8 7 12 19 18 19 12 6 7 15 13 14 13 10 11 11 13 13 13 9 7 5 7 9 9 10 11 13 14 15 15 15 15 16 15 14 13 13 15 16 17 16 15 12 11 10 10 8 8 9 9 8 7 6 6 6 6 6 7 6 7 7 6 7 7 6 6 6 6 7 7 8 9 10 10 11 11 11 12 12 13 13 13 13 14 15 14
3 1 2 3 4 3 7 7 1 2 10 3 23 20 22 4 5 9 11 14 14 12 10 13 13 14 13 11 10 9 9 9 8 8 10 11 12 13 14 15 15 16 15 14 15 13 16 15 15 13 13 13 13 12 11 11 10 8 8 7 8 7 7 7 6 6 6 6 6 6 7 7 7 6 6 6 5 6 6 7 8 8 10 10 11 11 11 12 12 12 12 12 12 13 15 16 15
6 6 7 3 2 3 4 3 3 5 5 9 12 15 20 1 9 8 7 8 12 12 12 11 12 12 12 11 10 10 11 9 9 9 10 11 12 11 12 11 10 10 10 11 12 15 15 13 15 15 17 15 14 12 11 10 9 9 10 9 9 7 8 6 7 6 6 6 6 6 6 5 5 6 5 5 5 6 7 7 8 9 10 11 11 12 10 10 11 12 12 13 14 14 16 15 15
11 16 14 17 11 6 5 9 4 2 5 7 5 15 19 7 4 5 1 2 5 9 10 9 11 13 12 11 11 12 10 11 10 10 10 9 9 9 9 9 8 10 11 14 12 13 14 15 16 15 14 14 14 13 12 11 9 9 10 9 9 7 7 6 7 6 6 6 6 5 5 5 6 6 4 5 6 6 6 8 9 10 11 11 11 12 11 10 11 12 13 10 12 14 15 16 15
Wind_Direction
163 154 152 178 219 256 237 153 234 141 243 153 129 216 117 200 20 168 184 132 193 125 178 110 97 152 197 268 234 57 34 231 11 205 314 85 125 95 66 30 14 15 344 10 19 30 42 37 36 46 51 54 55 57 57 59 59 59 60 60 55 52 50 50 49 48 47 45 46 45 47 46 45 46 47 45 42 42 42 42 36 28 22 12 3 358 356 352 352 349 344 343 347 348 343 324 311
150 138 134 203 21 271 171 331 273 179 202 168 167 216 132 168 195 202 181 187 98 134 146 139 149 57 38 23 58 109 146 16 358 39 87 113 141 103 74 45 31 36 24 28 30 33 44 41 36 47 50 53 55 55 56 57 58 58 59 57 55 55 53 52 51 47 48 47 46 46 46 47 46 43 44 44 41 39 38 38 37 31 25 18 11 9 7 358 356 350 348 347 349 353 352 349 339
141 162 138 203 164 302 74 236 244 212 243 252 143 193 112 184 206 193 188 181 114 123 133 127 119 131 160 51 194 215 171 61 108 118 92 146 161 122 95 60 57 50 51 30 39 47 52 37 34 47 53 53 54 54 55 56 56 56 56 56 55 54 54 55 55 53 51 48 46 46 44 45 46 43 41 41 40 37 33 32 30 29 26 20 15 11 10 6 2 359 355 354 353 356 359 360 356
145 320 235 201 168 256 210 199 270 234 250 13 195 164 182 192 196 166 94 110 122 133 137 146 171 44 239 205 235 45 84 175 170 141 135 184 36 109 93 69 59 78 66 51 51 60 48 43 44 51 53 56 56 55 55 56 56 55 55 54 54 53 53 53 53 52 52 51 50 47 46 44 43 43 41 39 38 36 33 30 27 27 26 23 18 15 12 9 7 5 4 3 1 3 6 4 359
238 93 295 250 271 175 260 279 296 254 263 160 6 155 195 200 175 142 122 129 134 148 176 151 145 81 332 334 92 251 118 68 170 216 111 88 94 95 98 65 101 98 78 60 61 62 58 43 47 52 57 57 58 58 57 57 57 57 55 54 53 53 53 52 51 50 49 49 48 47 46 44 43 41 38 35 34 32 31 30 28 29 26 22 16 15 14 12 11 10 9 10 9 13 8 2 360
147 138 52 259 282 12 229 206 199 229 6 218 223 178 191 190 174 147 135 144 155 184 349 190 301 158 193 196 335 238 127 177 132 158 163 120 112 113 107 132 99 87 75 69 56 62 58 48 55 54 56 58 60 60 59 59 58 57 57 55 54 54 53 52 51 50 49 48 47 47 46 44 43 41 38 36 33 31 28 27 27 27 25 21 19 17 15 13 13 13 14 14 15 13 8 1 356
175 166 120 118 139 242 269 250 256 258 105 295 327 143 181 170 151 140 142 151 206 251 202 213 157 119 232 143 198 231 11 358 178 136 209 121 122 119 131 118 107 89 71 63 67 66 53 52 56 60 59 60 62 62 62 62 60 59 58 56 54 53 53 52 51 49 49 48 47 47 46 45 44 42 39 36 33 30 28 26 25 24 23 21 18 16 15 15 15 16 13 13 13 9 3 358 352
25 276 109 227 150 245 235 266 260 240 118 246 9 290 175 158 152 163 163 170 183 206 185 218 206 251 59 197 221 100 55 271 43 110 117 132 124 123 131 125 109 85 76 71 65 65 59 51 58 59 61 63 64 64 64 63 63 62 60 57 55 54 53 52 50 49 48 47 46 45 44 43 42 40 38 37 34 30 28 26 23 22 20 18 17 16 14 13 13 10 7 7 7 5 1 356 352
107 254 72 243 209 152 239 235 264 43 319 205 240 290 342 162 170 167 170 194 80 212 155 183 188 196 136 162 208 100 162 128 123 116 124 126 130 129 113 108 99 90 77 69 67 67 63 49 57 59 61 62 63 64 64 62 62 61 60 60 58 56 54 53 51 50 49 47 46 44 43 42 40 40 38 36 33 30 27 25 24 22 20 17 16 14 13 10 9 8 8 6 4 6 3 359 356
149 273 189 243 344 234 265 214 228 190 234 128 254 189 183 162 180 195 178 190 191 169 155 148 171 244 115 200 154 183 184 156 141 133 133 127 127 126 109 94 94 98 88 77 71 73 69 56 55 59 60 62 63 63 63 63 63 61 61 60 59 57 57 55 54 51 49 47 45 44 43 41 39 38 38 35 33 30 27 24 23 21 19 17 15 12 11 10 8 7 7 6 6 3 1 359 357
215 99 360 222 219 256 243 247 216 138 213 130 239 215 187 176 186 197 199 197 147 182 126 157 180 230 199 215 228 47 114 151 162 152 143 130 130 132 118 100 91 94 94 77 76 81 85 75 60 56 61 62 63 65 64 65 65 64 63 61 59 57 56 55 54 52 50 48 46 44 42 40 39 37 36 35 32 30 27 24 22 21 19 16 13 12 10 9 8 8 8 6 3 0 358 357 355
220 206 180 242 246 264 348 294 282 211 163 205 212 168 167 178 184 204 204 209 188 197 179 175 199 155 212 218 203 146 150 166 172 145 139 142 137 127 123 118 106 101 99 97 89 82 82 81 81 66 60 60 64 65 64 65 64 65 65 64 62 61 57 56 54 53 52 51 48 46 43 41 39 38 36 34 31 28 27 22 20 19 18 15 13 11 9 8 6 6 5 4 1 360 358 354 351
280 114 212 244 301 250 53 265 280 332 234 213 195 152 145 178 197 209 207 213 192 192 213 197 48 199 215 203 67 137 174 176 162 146 147 153 140 132 128 121 119 113 108 104 98 90 83 86 80 75 69 73 65 63 65 66 67 66 66 65 65 62 61 58 55 52 50 48 47 45 44 42 41 39 37 34 32 28 25 22 18 17 16 14 12 10 8 6 4 2 1 360 359 357 356 353 348
256 241 242 243 60 293 247 307 87 246 224 145 117 133 174 183 207 221 191 210 207 211 62 169 161 182 257 127 165 184 189 172 155 149 152 143 140 136 131 128 125 123 118 119 109 101 91 83 80 75 72 71 78 77 64 58 63 65 66 66 66 65 63 61 60 57 55 52 50 48 46 45 41 38 37 35 33 29 23 21 16 16 14 12 10 8 7 5 2 0 358 355 354 353 352 347 344
243 228 197 15 174 234 178 245 281 230 267 147 135 154 168 217 29 211 212 215 218 71 111 222 175 142 231 186 189 192 175 166 154 149 143 139 137 138 133 133 129 124 123 118 114 110 100 94 89 82 73 72 70 68 71 61 55 61 63 64 62 62 61 60 58 57 52 50 48 45 43 47 45 40 37 36 31 32 24 19 15 14 12 9 6 5 3 2 360 358 355 353 352 349 346 341 336
94 186 294 234 228 248 159 231 188 258 242 157 135 157 174 127 219 200 224 323 63 41 161 186 212 240 7 227 50 125 157 152 147 144 141 140 138 135 141 145 140 135 133 133 122 111 102 103 99 91 82 76 73 75 76 75 61 58 61 60 59 58 56 55 54 51 51 40 39 30 35 37 39 43 31 32 27 28 24 16 12 13 13 9 5 1 359 358 355 354 352 350 348 345 342 334 326
233 280 210 219 251 203 156 214 164 240 88 141 128 177 189 186 170 269 2 249 225 182 202 210 193 60 238 49 54 75 146 142 142 147 148 152 156 158 164 162 155 152 157 149 138 126 122 114 110 101 92 86 83 81 78 74 61 73 73 65 62 55 52 50 46 45 38 41 26 27 27 30 31 28 25 19 22 25 25 13 10 9 10 9 2 358 357 354 352 349 347 347 344 340 337 326 322
238 220 246 238 288 224 170 205 196 25 285 162 181 193 207 201 162 168 175 196 231 144 214 207 252 246 248 65 103 159 143 148 156 158 167 167 176 173 176 176 173 171 166 155 147 144 141 129 123 122 110 102 102 97 91 91 94 73 69 70 61 61 51 49 47 39 37 29 23 28 28 27 22 27 22 11 13 11 22 8 6 5 6 5 358 352 351 351 348 344 343 342 338 336 329 327 334
223 164 234 286 181 3 187 212 216 200 212 107 185 193 214 223 157 161 204 202 196 220 221 216 231 231 193 184 149 159 157 161 168 175 174 177 183 181 179 173 183 166 171 162 158 165 155 144 144 126 122 122 115 111 109 106 100 97 91 87 89 73 67 55 54 48 40 31 27 28 31 26 15 31 26 5 337 344 12 356 358 358 358 1 355 346 349 348 344 342 340 339 331 331 329 334 334
137 243 252 246 195 296 230 210 224 227 93 156 175 192 217 196 186 125 219 222 188 222 213 199 227 230 206 168 160 163 171 172 179 183 184 186 187 184 181 177 178 179 172 170 161 166 168 153 141 133 134 144 145 123 126 113 105 101 90 85 82 82 72 71 64 56 44 37 28 34 29 22 7 21 18 358 315 1 13 356 352 347 355 358 351 343 345 350 339 341 340 337 330 342 337 332 331
119 231 242 276 105 248 200 205 230 198 244 248 193 125 211 212 187 176 206 237 232 231 226 207 211 222 198 162 165 170 177 179 185 190 190 190 192 192 189 183 179 174 171 159 160 172 171 158 150 142 146 143 143 136 130 115 110 105 96 90 79 73 68 63 63 59 52 38 34 29 27 24 13 23 15 8 5 5 1 358 357 0 358 356 353 355 351 347 343 341 341 341 342 337 335 331 327
173 263 13 68 129 247 130 195 122 179 356 221 160 172 211 98 157 215 205 226 249 228 221 219 234 231 161 165 174 175 181 184 188 191 194 192 191 190 187 180 173 167 159 169 173 167 172 167 162 151 152 148 140 132 119 116 132 100 89 76 83 68 65 59 54 50 48 37 33 21 20 25 18 21 15 10 8 5 5 2 360 359 354 354 355 352 353 346 343 341 338 339 336 332 328 324 321
241 180 227 208 223 270 60 198 177 182 180 195 185 213 84 184 215 214 220 229 243 63 62 229 234 227 171 161 162 179 185 189 191 194 193 194 194 192 188 177 170 172 171 177 169 171 170 168 165 163 156 147 139 126 128 119 98 94 77 59 58 64 57 55 50 51 45 42 28 30 18 19 19 15 12 10 8 4 5 360 355 356 352 354 353 348 349 344 341 340 339 333 332 325 322 318 314
264 284 145 202 188 234 102 39 113 211 216 217 46 52 219 174 243 187 228 237 243 86 92 68 335 171 145 162 176 183 187 190 195 196 195 196 192 191 186 181 179 169 176 174 174 170 172 171 168 169 162 159 152 147 133 124 106 97 106 113 81 56 55 54 55 48 46 46 40 27 16 21 14 15 11 7 2 2 359 352 347 349 350 351 348 348 348 345 340 340 336 331 327 325 320 317 313
225 248 182 185 221 245 256 278 235 220 238 36 228 218 234 211 261 39 246 243 237 222 144 117 138 167 174 181 185 190 191 195 197 195 194 198 194 186 179 179 177 173 182 176 174 175 173 169 171 173 163 165 156 152 136 126 129 131 123 110 90 76 73 66 57 53 46 46 42 29 20 15 14 10 8 1 352 358 351 348 340 346 339 344 344 344 346 338 337 336 335 333 331 325 322 318 316
208 265 153 166 238 253 208 249 234 220 238 194 224 240 216 143 340 260 256 253 231 213 178 174 170 178 190 196 190 189 193 196 194 191 192 186 183 180 184 184 179 184 184 174 174 177 171 169 175 173 171 166 159 158 146 146 153 142 134 114 110 112 88 81 72 59 51 44 44 29 25 15 13 6 3 352 348 351 347 344 338 342 339 346 343 342 343 332 331 328 330 328 327 325 322 322 317
332 260 271 268 275 306 170 245 172 198 253 181 235 259 239 102 192 278 147 18 162 166 193 185 195 208 200 201 198 199 196 197 194 190 184 191 188 193 186 185 185 186 177 178 178 174 168 172 174 172 167 165 167 158 152 151 154 147 139 134 120 102 103 102 83 74 65 60 49 37 29 22 6 5 0 354 346 345 343 342 338 338 338 346 341 336 337 328 323 324 325 323 322 319 315 318 316
42 309 276 250 255 249 234 249 244 201 252 188 241 264 337 161 232 247 170 148 156 169 192 196 209 218 211 205 200 203 207 203 193 185 190 186 194 193 187 187 185 182 180 179 178 172 169 178 174 174 174 172 167 156 152 153 148 136 135 132 113 96 90 91 89 83 78 69 65 46 31 21 2 357 5 358 347 336 339 339 333 336 335 338 333 332 327 321 318 316 317 313 308 309 312 308 308
28 289 284 260 268 273 194 227 187 181 237 161 192 264 229 193 232 237 176 144 154 185 198 202 213 218 215 208 207 203 207 197 192 197 203 199 192 190 190 186 179 180 182 177 176 171 176 178 175 177 176 168 171 158 151 146 140 132 130 121 109 97 92 86 85 86 79 88 88 60 33 17 358 6 360 354 341 331 331 327 334 331 331 334 325 322 318 315 316 321 320 316 311 313 306 308 307
252 156 310 294 253 263 137 108 117 192 178 149 201 285 236 201 224 233 117 152 160 202 218 213 215 214 213 209 211 212 206 201 200 206 203 199 193 190 189 182 181 178 177 179 174 179 177 175 174 171 174 168 161 152 147 148 144 139 137 129 105 124 97 104 101 98 100 102 93 71 27 16 4 6 355 344 334 330 327 325 330 329 333 328 320 323 324 324 320 321 322 322 322 314 312 309 307
265 100 238 268 292 248 134 175 149 205 91 181 280 262 281 227 206 224 142 159 183 226 222 221 215 210 212 213 214 214 210 209 209 205 204 201 191 187 188 178 182 182 175 179 181 181 178 176 171 168 171 158 154 148 154 147 151 158 155 136 121 126 119 120 123 126 143 128 46 89 27 4 359 356 348 335 327 326 323 321 322 326 333 321 317 323 319 316 317 321 324 325 319 314 309 306 302
262 273 234 170 233 252 132 157 186 217 112 206 197 265 266 278 256 132 128 178 210 238 240 228 218 214 212 213 216 216 215 210 213 210 208 200 189 187 188 183 182 186 183 178 177 180 181 176 174 167 167 158 160 156 160 159 163 164 149 134 133 137 140 140 146 153 167 161 142 257 148 330 341 339 331 328 317 317 314 311 314 324 323 316 314 311 309 309 318 318 318 318 319 315 311 305 302
176 223 273 268 207 268 301 158 207 353 127 198 212 258 297 285 108 86 126 173 205 242 248 241 230 222 217 216 214 215 211 210 209 209 207 199 198 192 191 185 186 188 183 175 178 176 178 175 179 173 171 166 165 164 165 170 165 158 152 139 125 144 160 157 148 170 202 202 234 251 235 278 306 308 310 309 300 300 302 304 309 313 314 306 300 303 299 307 314 313 312 313 306 306 306 301 301
221 141 259 265 265 292 278 122 152 152 220 218 219 244 248 263 259 151 163 179 202 237 249 246 235 225 215 214 213 209 209 209 207 207 208 198 196 195 192 189 185 183 182 178 180 178 181 176 179 176 170 171 168 168 171 169 163 151 148 139 135 152 163 191 173 184 220 232 230 245 251 267 275 289 285 289 290 292 293 295 299 299 300 295 295 297 297 303 305 311 308 306 306 301 300 303 302
278 217 248 256 214 225 263 274 124 173 158 249 235 234 259 261 269 270 214 181 211 248 254 253 246 230 219 213 215 212 210 212 214 208 201 195 191 190 193 187 183 182 182 181 178 181 179 175 177 173 173 172 171 168 162 159 153 155 134 149 165 187 184 181 195 218 222 238 244 259 264 258 254 267 273 277 287 298 295 291 288 299 297 294 296 297 300 300 306 307 303 302 299 295 297 299 301
268 261 268 277 275 257 249 216 107 222 220 238 238 243 257 264 268 268 262 175 222 246 255 258 252 243 230 220 215 211 211 219 216 206 195 191 188 185 189 185 181 182 181 183 181 181 180 176 178 176 180 176 172 168 167 172 175 173 173 168 182 188 183 181 197 221 232 240 246 259 255 249 256 268 279 282 283 288 294 290 293 293 286 286 289 291 296 309 309 305 300 302 300 297 290 295 304
15 217 241 255 260 267 270 156 118 154 259 248 252 254 260 266 267 271 269 192 246 249 251 252 251 240 232 228 220 209 209 220 204 197 187 184 183 184 187 182 182 181 183 184 184 184 185 181 178 182 180 179 178 176 179 179 176 174 176 193 190 167 181 175 216 217 222 242 245 257 254 249 251 266 274 276 283 287 282 287 286 282 277 276 273 275 284 287 289 290 295 294 296 300 300 301 308
237 256 248 263 225 261 260 334 119 172 221 270 241 260 262 264 266 267 270 208 245 255 257 255 253 245 239 230 224 204 214 199 171 187 187 177 182 185 185 186 181 183 189 186 187 185 186 183 183 181 179 181 187 184 177 179 182 183 181 176 176 174 187 207 215 199 216 230 246 249 253 251 251 265 275 278 282 280 283 285 283 278 275 272 273 274 272 274 280 286 295 299 291 297 297 303 305
190 237 251 274 262 280 276 336 123 156 201 264 270 277 272 267 264 262 258 251 241 244 249 260 264 266 243 232 219 202 194 206 197 208 190 188 185 186 190 192 192 191 186 188 186 183 185 183 185 184 181 181 186 180 175 180 173 166 176 146 173 172 214 274 279 271 260 249 246 246 251 253 257 264 267 271 276 272 273 277 274 276 270 272 277 277 275 281 285 291 298 299 309 294 286 291 300
209 198 229 239 264 334 282 113 96 176 217 296 307 292 277 267 255 252 253 253 259 248 252 253 254 257 258 249 204 193 204 209 205 197 193 189 187 189 193 195 191 188 186 185 186 187 184 185 186 184 180 182 181 179 179 167 165 159 168 159 153 237 261 220 249 249 240 238 240 239 239 244 253 264 268 266 261 266 269 270 273 270 271 271 274 280 281 280 285 292 296 299 299 304 305 301 298
207 224 232 253 238 232 228 309 302 207 237 286 280 267 258 235 243 248 240 352 260 265 257 259 257 252 257 235 197 193 212 206 202 193 192 189 191 196 197 193 184 188 187 187 187 187 183 184 183 180 179 184 183 175 177 171 159 164 165 161 200 227 241 244 238 234 220 220 227 223 226 233 253 263 265 261 261 264 263 262 264 268 268 268 270 272 281 283 286 285 292 294 297 299 303 301 295
214 223 229 242 263 263 219 12 338 294 278 136 343 324 285 162 182 211 269 273 262 237 226 246 245 255 248 237 229 204 220 208 196 191 190 191 198 198 194 188 188 191 193 192 186 185 176 181 180 179 180 182 182 178 180 178 179 184 180 191 201 209 217 209 216 219 204 214 228 225 235 237 249 255 255 257 257 261 261 261 261 264 267 269 268 276 278 282 281 286 285 288 286 279 283 296 291
220 246 201 232 245 260 318 291 39 264 266 75 307 350 292 138 187 176 198 237 256 225 221 251 251 231 233 226 204 202 209 205 205 195 189 195 199 193 192 190 193 194 198 184 179 182 180 181 177 178 181 182 181 179 179 180 184 192 198 205 215 220 225 219 225 237 242 247 260 266 270 263 255 263 265 261 262 262 266 265 263 263 267 270 272 273 278 283 285 285 289 280 281 284 279 281 283
235 67 148 132 194 215 214 208 231 269 32 266 161 237 277 279 210 180 191 221 235 262 262 259 254 236 227 219 193 201 205 198 189 197 199 200 193 192 195 195 192 197 188 178 177 180 182 181 177 180 183 182 175 176 180 186 188 192 198 207 216 225 226 228 215 241 256 271 270 278 285 280 271 265 272 273 270 267 265 265 263 264 269 274 275 278 283 287 288 285 276 274 273 269 270 269 283
276 92 20 109 123 164 157 207 253 294 335 283 182 200 271 262 182 184 186 220 232 249 249 251 258 239 229 234 197 203 203 195 190 195 202 198 195 197 197 193 196 189 184 177 178 180 179 180 179 180 185 183 180 180 179 186 193 194 197 202 213 222 227 231 230 232 252 256 268 273 273 275 271 261 258 264 260 259 258 259 262 264 267 274 273 276 275 277 277 277 274 273 267 268 264 268 272
101 125 87 87 85 72 174 221 251 266 289 256 184 172 241 279 149 157 207 196 223 235 239 244 247 249 222 227 204 203 196 194 201 208 203 198 198 197 196 192 184 187 182 173 175 174 177 177 181 182 187 185 180 180 182 186 193 194 199 204 208 213 213 219 221 229 234 244 258 259 263 263 263 267 261 256 256 254 256 260 263 265 269 275 275 276 277 275 271 269 266 264 264 263 262 262 260
126 159 113 89 81 128 117 88 263 291 244 247 201 181 205 277 182 156 160 189 199 222 235 247 263 264 244 215 193 189 191 193 197 202 202 198 192 191 184 188 183 177 172 175 179 180 181 182 183 184 187 184 179 181 183 187 191 196 201 203 204 209 211 218 224 225 227 236 251 258 261 267 272 274 274 267 259 260 259 263 266 271 279 277 275 277 273 274 274 273 271 267 263 259 261 262 264
163 148 170 186 188 151 168 187 184 234 263 118 193 193 196 234 233 170 157 130 191 202 218 227 235 236 230 186 191 188 186 187 187 187 193 186 182 186 184 190 186 184 175 184 184 182 183 184 181 184 185 184 177 180 182 187 188 195 202 202 203 206 206 208 219 226 226 236 248 260 264 267 268 268 266 268 264 261 270 277 277 279 280 285 281 280 280 276 276 275 273 269 268 264 263 264 263
201 156 157 214 259 7 244 149 223 199 247 123 89 146 252 234 246 95 196 218 230 239 228 208 219 229 218 184 177 172 172 169 184 186 180 185 189 188 191 193 185 184 187 187 186 184 184 183 182 182 185 181 178 177 184 186 188 193 195 197 201 201 204 210 217 224 224 230 236 243 251 258 264 262 259 268 270 270 280 284 291 293 294 291 286 284 280 277 276 274 273 271 268 267 265 263 264
185 187 180 191 248 219 260 246 187 288 233 145 114 116 247 272 287 225 218 210 227 213 227 244 237 222 210 175 162 161 165 186 195 182 184 189 190 191 190 189 189 188 188 188 187 185 183 182 183 186 183 178 176 177 182 184 189 190 191 192 195 196 200 206 216 219 221 228 234 243 246 254 262 264 273 273 280 284 281 286 286 286 287 286 283 281 281 279 278 277 275 273 272 269 267 264 263
197 181 174 219 181 197 245 259 260 273 300 137 227 115 239 84 211 196 214 214 222 206 210 231 243 272 25 35 60 147 176 202 199 188 193 195 194 189 186 190 190 190 188 187 187 187 181 184 184 186 178 178 177 177 178 182 183 185 185 189 191 193 198 204 212 216 219 224 232 241 249 254 256 263 270 277 283 283 287 291 291 291 290 288 286 284 282 281 279 278 274 273 273 269 267 266 265
151 119 27 286 229 182 247 308 298 317 320 287 153 223 228 221 79 251 29 63 234 223 214 216 227 240 202 220 221 214 206 199 194 201 205 205 197 191 189 191 193 189 188 188 187 184 185 188 184 185 179 174 174 174 177 178 178 178 182 185 189 192 196 202 210 210 217 220 232 241 249 252 253 261 267 268 271 277 283 289 289 283 285 284 282 281 282 281 281 279 276 273 272 267 267 264 263
159 141 207 203 10 199 263 39 114 61 214 264 161 260 254 248 242 150 169 183 219 203 227 219 224 228 193 226 227 218 212 200 196 206 206 202 195 198 196 194 192 190 188 192 191 188 187 181 178 182 175 169 174 175 172 173 171 172 180 182 186 191 197 202 206 210 214 224 232 239 244 249 257 259 260 262 266 270 280 283 286 286 282 281 281 281 279 277 277 276 274 273 271 269 267 265 262
111 221 203 91 11 357 181 247 181 231 249 272 341 267 286 265 288 146 174 207 201 192 224 217 224 233 228 232 231 222 221 215 211 214 215 206 203 202 199 199 197 195 196 195 194 189 186 180 176 175 170 170 174 169 169 170 170 174 176 181 186 191 195 202 209 212 216 221 227 232 239 245 247 255 259 259 263 277 282 281 282 283 282 280 278 279 277 277 276 275 274 271 269 270 269 266 263
314 10 316 182 189 190 165 80 245 241 240 273 267 276 271 256 251 127 189 209 222 222 222 218 230 229 230 234 238 233 223 210 212 214 210 207 206 204 201 202 200 201 198 195 190 182 177 174 177 175 173 170 167 166 167 167 168 168 174 179 183 186 193 200 205 210 216 224 229 235 240 250 257 255 256 260 273 285 284 288 284 284 286 285 281 277 279 279 277 277 277 275 273 275 274 271 268
103 244 213 353 319 195 164 205 242 224 270 290 277 286 270 96 188 162 219 190 209 208 210 216 218 217 219 222 225 219 213 216 215 212 211 211 209 207 203 200 196 197 192 185 183 175 181 178 171 170 163 161 162 166 164 164 167 166 167 169 179 185 191 197 204 207 217 223 231 236 245 251 252 262 263 268 282 288 289 291 288 285 285 284 282 281 281 283 282 278 278 276 277 278 276 274 275
192 205 201 170 207 356 341 342 204 216 237 234 267 282 276 7 129 148 224 193 196 190 206 211 212 217 219 222 222 225 227 223 221 216 215 213 211 206 205 200 195 188 186 180 179 180 182 173 174 170 167 166 167 166 164 165 161 167 167 174 179 181 190 196 203 212 219 229 233 237 245 251 266 261 269 281 289 291 293 290 290 290 289 288 286 284 282 281 278 277 278 278 280 279 279 278 278
176 179 194 187 158 186 191 245 121 230 209 238 226 251 272 255 83 108 93 122 162 189 197 206 209 224 223 223 226 223 225 229 224 221 217 215 210 204 199 190 180 180 186 187 179 174 177 178 179 170 168 169 168 167 169 161 162 165 171 176 178 181 187 197 202 207 220 222 232 237 241 255 260 266 274 288 292 292 291 291 292 289 287 284 282 283 283 280 279 281 281 277 278 281 281 279 281